Terminal Aerodrome Forecast
Issued by NWS Wilmington, OH

Home | Current Version | Previous Version | Text Only | Print | Product List | Glossary On
Versions: 1 2 3 4 5 6 7 8 9 10 11 12 13 14 15 16 17 18 19 20 21 22
000
FTUS41 KILN 281459 AAB
TAFILN
TAF AMD
KILN 281459Z 2815/2912 01011KT 3SM BR OVC004
     FM281600 36009KT P6SM OVC008
     FM281800 36008KT P6SM OVC015
     FM282100 36010KT P6SM OVC025
     FM290800 03006KT P6SM BKN025=

USA.gov is the U.S. government's official web portal to all federal, state and local government web resources and services.